FREGAT R/B, 41551

Orbit data source: Space-Track

FREGAT R/B, 41551 is space debris originally from a launch on Tue, 24 May 2016 UTC launched from the French Guiana (FRGUI). Debris objects in space refer to the collection of defunct objects orbiting the Earth. Examples of debris include non-operational satellites, rocket bodies, and fragments generated from explosions, collisions, or faulty payload assembly.

Loading next visibility...
Identifier
41551, 2016-030C
Orbit
Active
Country
Flag of CISCIS
Related business
Manufacturer
Lavochkin
Mission
Spacecraft
Bus & Motor
FREGAT, Unknown motor
Mass
1,050 kg wet, 1,050 kg dry
Launch date (UTC)
2016-05-24 (9 years ago)
Launch vehicle
Unknown
Launch site
French Guiana (FRGUI)
Object type
Payload
Rocket body
Debris
Shape & HBR
Irr, 1.6 m
Radar Cross Section
11.055 m², Large (>1 m²)

Expand to show TLE details & history
Last TLE update: 2 days ago

TLE from 2 days ago
0 FREGAT R/B
1 41551U 16030C   25303.99492367 -.00000001  00000-0  00000+0 0  9999
2 41551  55.0584 231.1574 0021827 233.2166 126.5926  1.67598020 57787
Epoch: 2025-10-30T23:52Z
TLE epoch observation values (Epoch: 2025-10-30T23:52:41.405Z)
Latitude
-0.00002°
Longitude
-166.57501°
Altitude
23,599.133 km
Speed
3.644 km/s
True Right ascension
15h 24m 34s
True Declination
0° 00' 00"
Sunlit
Object was in daylight at epoch
Visualization orbit readout
Latitude
Unknown
Longitude
Unknown
Altitude
Unknown
Speed
Unknown
Apparent Right ascension
Unknown
Apparent Declination
Unknown
Sunlit
N/A
Visualization observer readout
Local Sidereal Time
09:33:43
Azimuth
Unknown
Elevation
Unknown
Doppler factor
Unknown
Orbital elements
Apogee altitude
23,625.202 km
Perigee altitude
23,494.51 km
Semi-major axis
29,937.993 km
Eccentricity
0.00218
Inclination
55.0584°
RAAN
231.1574°
Arg. of periapsis
233.2166°
True anomaly
126.79309°
Mean anomaly
126.5926°
Eccentric anomaly
126.69288°
Mean motion
0.419 °/min
Orbital period
859.2 mins
BSTAR
0
Loading maneuver chart data...
Computing Atmospheric mass density...
Loading historical data...
Loading historical data...
Loading historical data...
Loading historical data...
Loading historical data...
Loading historical data...
Loading historical data...
Other satellites on launch #30 in the year 2016 (2016-05-24 UTC)

Documentation

Showing up to 5 results
|